FW5442 Weather Reports


time (UTC)temp
C
wind
direction
speed
KPH
gust
KPH
rain 1hr
cm
rain 24hr
cm
rain mn
cm
humidity
%
barometer
mb
20260510201056 26 201 1.6 16.1 0.00 0.00 0.00 70 1015.1
20260510200558 26 0 0.0 8.0 0.00 0.00 0.00 71 1015.1
20260510200053 25 0 0.0 12.9 0.00 0.00 0.00 72 1015.2
20260510195555 25 0 0.0 12.9 0.00 0.00 0.00 73 1015.2
20260510195055 25 0 1.6 12.9 0.00 0.00 0.00 72 1015.3
20260510194604 25 0 0.0 14.5 0.00 0.00 0.00 73 1015.3
20260510194057 25 0 3.2 14.5 0.00 0.00 0.00 73 1015.3
20260510193556 25 0 0.0 9.7 0.00 0.00 0.00 74 1015.4
20260510193053 25 259 0.0 8.0 0.00 0.00 0.00 74 1015.4
20260510192555 25 0 0.0 4.8 0.00 0.00 0.00 73 1015.5
20260510192057 25 0 0.0 4.8 0.00 0.00 0.00 73 1015.6
20260510191605 25 0 0.0 4.8 0.00 0.00 0.00 72 1015.7
20260510191053 25 0 0.0 0.0 0.00 0.00 0.00 72 1015.8
20260510190556 25 0 0.0 0.0 0.00 0.00 0.00 73 1015.6
20260510190107 25 0 0.0 9.7 0.00 0.00 0.00 72 1015.8
20260510185556 25 0 0.0 9.7 0.00 0.00 0.00 71 1015.8
20260510185056 26 0 0.0 0.0 0.00 0.00 0.00 71 1015.7
20260510184556 25 0 0.0 6.4 0.00 0.00 0.00 71 1015.7
20260510184057 25 0 0.0 9.7 0.00 0.00 0.00 72 1015.8
20260510183556 25 0 0.0 11.3 0.00 0.00 0.00 72 1015.8
20260510183059 25 221 0.0 11.3 0.00 0.00 0.00 70 1015.8
20260510182552 25 0 4.8 6.4 0.00 0.00 0.00 71 1015.7
20260510182052 25 0 0.0 0.0 0.00 0.00 0.00 71 1015.7
20260510181557 25 0 0.0 9.7 0.00 0.00 0.00 72 1015.6
20260510181057 25 0 0.0 9.7 0.00 0.00 0.00 74 1015.5
20260510180556 25 0 3.2 11.3 0.00 0.00 0.00 73 1015.5
20260510180053 24 0 6.4 11.3 0.00 0.00 0.00 75 1015.5
20260510175553 23 0 1.6 12.9 0.00 0.00 0.00 78 1015.4
20260510175052 23 93 6.4 12.9 0.00 0.00 0.00 78 1015.2
20260510174558 23 87 8.0 14.5 0.00 0.00 0.00 78 1015.1
20260510174054 23 110 6.4 16.1 0.00 0.00 0.00 79 1015.1
20260510173558 23 93 9.7 16.1 0.00 0.00 0.00 79 1014.9
20260510173053 23 88 9.7 14.5 0.00 0.00 0.00 79 1014.8
20260510172553 23 96 4.8 11.3 0.00 0.00 0.00 79 1014.9
20260510172056 23 0 3.2 11.3 0.00 0.00 0.00 80 1014.8
20260510171556 23 68 3.2 11.3 0.00 0.00 0.00 81 1014.9
20260510171052 23 73 1.6 8.0 0.00 0.00 0.00 80 1015.0
20260510170555 23 86 3.2 8.0 0.00 0.00 0.00 81 1015.2
20260510170055 23 101 1.6 6.4 0.00 0.00 0.00 81 1015.6
20260510165553 22 0 1.6 9.7 0.00 0.00 0.00 82 1015.7
20260510165056 22 0 1.6 9.7 0.00 0.00 0.00 82 1015.8
20260510164554 22 337 4.8 9.7 0.00 0.00 0.00 82 1015.8
20260510164052 22 318 6.4 9.7 0.00 0.00 0.00 81 1015.8
20260510163552 22 304 3.2 9.7 0.00 0.00 0.00 81 1015.9
20260510163056 22 293 6.4 9.7 0.00 0.00 0.00 81 1016.0
20260510162552 22 336 8.0 12.9 0.00 0.00 0.00 81 1015.9
20260510162053 21 323 9.7 12.9 0.00 0.00 0.00 80 1016.0
20260510161609 22 314 8.0 12.9 0.00 0.00 0.00 81 1016.2
20260510161058 22 280 4.8 14.5 0.00 0.00 0.00 82 1016.4
20260510160554 22 273 8.0 16.1 0.00 0.00 0.00 82 1016.2
20260510160132 22 253 6.4 16.1 0.00 0.00 0.00 82 1016.3
20260510155555 22 232 11.3 16.1 0.00 0.00 0.00 82 1016.3
20260510155053 22 250 8.0 12.9 0.00 0.00 0.00 81 1016.4
20260510154603 22 212 8.0 11.3 0.00 0.00 0.00 81 1016.4
20260510154058 22 238 8.0 11.3 0.00 0.00 0.00 81 1016.4
20260510153552 22 195 6.4 11.3 0.00 0.00 0.00 81 1016.4
20260510153057 22 212 6.4 11.3 0.00 0.00 0.00 81 1016.3
20260510152553 21 221 6.4 9.7 0.00 0.00 0.00 80 1016.2
20260510152055 21 181 4.8 9.7 0.00 0.00 0.00 80 1016.1
20260510151607 21 160 4.8 9.7 0.00 0.00 0.00 79 1016.1
20260510151053 21 188 4.8 9.7 0.00 0.00 0.00 79 1016.0
20260510150553 21 195 3.2 8.0 0.00 0.00 0.00 78 1016.1
20260510150057 21 196 3.2 8.0 0.00 0.00 0.00 78 1016.0
20260510145600 21 155 4.8 8.0 0.00 0.00 0.00 76 1015.9
20260510145056 21 128 4.8 8.0 0.00 0.00 0.00 77 1015.7
20260510144601 21 121 3.2 8.0 0.00 0.00 0.00 75 1015.8
20260510144056 21 153 4.8 8.0 0.00 0.00 0.00 75 1015.7
20260510143553 21 96 4.8 8.0 0.00 0.00 0.00 73 1015.7
20260510143056 21 132 4.8 9.7 0.00 0.00 0.00 72 1015.7
20260510142552 21 147 6.4 9.7 0.00 0.00 0.00 70 1015.7
20260510142053 21 165 6.4 11.3 0.00 0.00 0.00 68 1015.8
20260510141557 21 174 8.0 11.3 0.00 0.00 0.00 68 1015.8
20260510141052 21 184 8.0 11.3 0.00 0.00 0.00 68 1015.8
20260510140552 21 176 8.0 9.7 0.00 0.00 0.00 67 1015.7
20260510135553 21 179 6.4 9.7 0.00 0.00 0.00 65 1015.4
20260510135055 20 188 8.0 11.3 0.00 0.00 0.00 62 1015.5
20260510134604 20 154 8.0 11.3 0.00 0.00 0.00 61 1015.4
20260510134053 20 169 8.0 11.3 0.00 0.00 0.00 58 1015.5
20260510133552 20 143 6.4 9.7 0.00 0.00 0.00 56 1015.4
20260510133054 20 186 6.4 9.7 0.00 0.00 0.00 56 1015.5
20260510132553 20 160 4.8 9.7 0.00 0.00 0.00 53 1015.5
20260510132053 20 155 4.8 8.0 0.00 0.00 0.00 50 1015.6
20260510131559 20 153 3.2 6.4 0.00 0.00 0.00 48 1015.5
20260510131052 20 0 0.0 0.0 0.00 0.00 0.00 44 1015.4
20260510130556 20 0 0.0 0.0 0.00 0.00 0.00 39 1015.4
20260510130056 19 0 0.0 0.0 0.00 0.00 0.00 36 1015.4
20260510125555 19 0 0.0 0.0 0.00 0.00 0.00 37 1015.6
20260510125053 19 0 0.0 0.0 0.00 0.00 0.00 34 1015.4
20260510124603 18 0 0.0 0.0 0.00 0.00 0.00 30 1015.3
20260510124052 18 0 0.0 0.0 0.00 0.00 0.00 28 1015.2
20260510123555 18 0 0.0 0.0 0.00 0.00 0.00 26 1015.2
20260510123053 18 0 0.0 0.0 0.00 0.00 0.00 26 1015.2
20260510122553 18 0 0.0 0.0 0.00 0.00 0.00 26 1015.2
20260510122053 18 0 0.0 0.0 0.00 0.00 0.00 25 1015.1
20260510121553 17 0 0.0 0.0 0.00 0.00 0.00 26 1015.0
20260510121052 17 0 0.0 0.0 0.00 0.00 0.00 26 1015.0
20260510120553 17 0 0.0 0.0 0.00 0.00 0.00 26 1015.1
20260510120053 17 0 0.0 0.0 0.00 0.00 0.00 27 1015.1
20260510115555 17 0 0.0 0.0 0.00 0.00 0.00 28 1015.1
20260510115053 17 0 0.0 0.0 0.00 0.00 0.00 28 1015.1
20260510114556 16 0 0.0 0.0 0.00 0.00 0.00 29 1015.1
20260510114056 16 0 0.0 0.0 0.00 0.00 0.00 30 1014.9
20260510113555 16 0 0.0 0.0 0.00 0.00 0.00 30 1014.9
20260510113102 16 0 0.0 0.0 0.00 0.00 0.00 31 1014.9
20260510112552 16 0 0.0 0.0 0.00 0.00 0.00 31 1015.0
20260510112055 16 0 0.0 0.0 0.00 0.00 0.00 32 1014.9
20260510111609 16 0 0.0 0.0 0.00 0.00 0.00 32 1014.7
20260510111052 16 0 0.0 0.0 0.00 0.00 0.00 32 1014.7
20260510110555 16 0 0.0 6.4 0.00 0.00 0.00 32 1014.7
20260510110057 16 0 1.6 12.9 0.00 0.00 0.00 33 1014.7
20260510105552 16 173 4.8 12.9 0.00 0.00 0.00 34 1014.5
20260510105052 16 207 0.0 12.9 0.00 0.00 0.00 34 1014.6
20260510104555 17 0 0.0 0.0 0.00 0.00 0.00 31 1014.5
20260510104051 17 0 0.0 0.0 0.00 0.00 0.00 31 1014.4
20260510103554 16 0 0.0 0.0 0.00 0.00 0.00 33 1014.3
20260510103055 16 0 0.0 0.0 0.00 0.00 0.00 35 1014.3
20260510102553 17 0 0.0 0.0 0.00 0.00 0.00 34 1014.2
20260510102053 17 0 0.0 0.0 0.00 0.00 0.00 32 1014.1
20260510101557 17 0 0.0 0.0 0.00 0.00 0.00 31 1014.1
20260510101055 17 0 0.0 0.0 0.00 0.00 0.00 31 1014.0
20260510100553 17 0 0.0 0.0 0.00 0.00 0.00 31 1013.9
20260510100057 17 0 0.0 0.0 0.00 0.00 0.00 31 1013.8
20260510095555 17 0 0.0 0.0 0.00 0.00 0.00 32 1013.6
20260510095054 17 0 0.0 0.0 0.00 0.00 0.00 32 1013.5
20260510094556 17 0 0.0 0.0 0.00 0.00 0.00 33 1013.4
20260510094055 17 0 0.0 0.0 0.00 0.00 0.00 33 1013.5
20260510093555 17 0 0.0 0.0 0.00 0.00 0.00 33 1013.4
20260510093111 17 0 0.0 0.0 0.00 0.00 0.00 36 1013.2
20260510092556 17 0 0.0 0.0 0.00 0.00 0.00 36 1013.1
20260510092056 17 0 0.0 0.0 0.00 0.00 0.00 34 1013.2
20260510091553 17 0 0.0 0.0 0.00 0.00 0.00 35 1013.0
20260510091055 17 0 0.0 0.0 0.00 0.00 0.00 36 1013.1
20260510090555 17 0 0.0 0.0 0.00 0.00 0.00 36 1012.8
20260510090116 17 0 0.0 0.0 0.00 0.00 0.00 37 1012.8
20260510085557 17 0 0.0 0.0 0.00 0.00 0.00 39 1012.8
20260510085055 17 0 0.0 0.0 0.00 0.00 0.00 39 1012.6
20260510084552 17 0 0.0 0.0 0.00 0.00 0.00 39 1012.6
20260510084055 17 0 0.0 0.0 0.00 0.00 0.00 39 1012.5
20260510083556 17 0 0.0 0.0 0.00 0.00 0.00 42 1012.6
20260510083111 17 0 0.0 0.0 0.00 0.00 0.00 50 1012.5
20260510082554 17 0 0.0 0.0 0.00 0.00 0.00 46 1012.5
20260510082056 17 0 0.0 0.0 0.00 0.00 0.00 42 1012.5
20260510081609 17 0 0.0 0.0 0.00 0.00 0.00 42 1012.7
20260510081055 18 0 0.0 0.0 0.00 0.00 0.00 41 1012.6
20260510080556 17 0 0.0 0.0 0.00 0.00 0.00 43 1012.7
20260510080100 17 0 0.0 0.0 0.00 0.00 0.00 44 1012.6
20260510075555 17 0 0.0 0.0 0.00 0.00 0.00 47 1012.6
20260510075055 17 0 0.0 0.0 0.00 0.00 0.00 52 1012.4
20260510074558 18 0 0.0 0.0 0.00 0.00 0.00 57 1012.5
20260510074059 18 0 0.0 0.0 0.00 0.00 0.00 55 1012.6
20260510073555 18 0 0.0 0.0 0.00 0.00 0.00 56 1012.4
20260510073054 18 0 0.0 0.0 0.00 0.00 0.00 57 1012.5
20260510072555 18 0 0.0 0.0 0.00 0.00 0.00 59 1012.5
20260510072059 18 0 0.0 0.0 0.00 0.00 0.00 57 1012.4
20260510071555 18 0 0.0 0.0 0.00 0.00 0.00 57 1012.3
20260510071054 18 0 0.0 0.0 0.00 0.00 0.00 58 1012.4
20260510070556 18 0 0.0 0.0 0.00 0.00 0.00 58 1012.3
20260510065558 18 0 0.0 0.0 0.00 0.00 0.00 58 1012.4
20260510065057 18 0 0.0 0.0 0.00 0.00 0.00 59 1012.4
20260510064608 18 0 0.0 0.0 0.00 0.00 0.00 59 1012.3
20260510064054 18 0 0.0 0.0 0.00 0.00 0.00 58 1012.4
20260510063555 18 0 0.0 0.0 0.00 0.00 0.00 59 1012.4
20260510063055 18 0 0.0 0.0 0.00 0.00 0.00 61 1012.6
20260510062555 18 0 0.0 0.0 0.00 0.00 0.00 64 1012.6
20260510062055 18 0 0.0 0.0 0.00 0.00 0.00 69 1012.5
20260510061557 18 0 0.0 0.0 0.00 0.00 0.00 70 1012.5
20260510061055 18 0 0.0 0.0 0.00 0.00 0.00 70 1012.4
20260510060556 18 0 0.0 0.0 0.00 0.00 0.00 72 1012.4
20260510060057 18 0 0.0 0.0 0.00 0.00 0.00 73 1012.3
20260510055554 18 0 0.0 0.0 0.00 0.00 0.00 75 1012.4
20260510055055 18 0 0.0 0.0 0.00 0.00 0.00 74 1012.4
20260510054556 19 0 0.0 0.0 0.00 0.00 0.00 74 1012.4
20260510054055 19 0 0.0 0.0 0.00 0.00 0.00 74 1012.5
20260510053555 19 0 0.0 0.0 0.00 0.00 0.00 75 1012.5
20260510053059 19 0 0.0 0.0 0.00 0.00 0.00 76 1012.6
20260510052557 19 0 0.0 0.0 0.00 0.00 0.00 75 1012.5
20260510052055 19 0 0.0 0.0 0.00 0.00 0.00 75 1012.6
20260510051559 19 0 0.0 0.0 0.00 0.00 0.00 76 1012.4
20260510051054 19 0 0.0 0.0 0.00 0.00 0.00 76 1012.5
20260510050555 19 0 0.0 0.0 0.00 0.00 0.00 77 1012.6
20260510050055 19 0 0.0 0.0 0.00 0.00 0.00 78 1012.5
20260510045555 19 0 0.0 0.0 0.00 0.00 0.00 79 1012.4
20260510045055 19 0 0.0 0.0 0.00 0.00 0.00 79 1012.5
20260510044638 19 0 0.0 0.0 0.00 0.00 0.00 80 1012.4
20260510044055 19 0 0.0 0.0 0.00 0.00 0.00 80 1012.4
20260510043556 19 0 0.0 0.0 0.00 0.00 0.00 80 1012.3
20260510043055 19 0 0.0 0.0 0.00 0.00 0.00 81 1012.3
20260510042558 20 0 0.0 0.0 0.00 0.00 0.00 81 1012.4
20260510042055 20 0 0.0 0.0 0.00 0.00 0.00 81 1012.5
20260510041559 20 0 0.0 0.0 0.00 0.00 0.00 81 1012.5
20260510041057 20 0 0.0 0.0 0.00 0.00 0.00 82 1012.3
20260510040555 20 0 0.0 0.0 0.00 0.00 0.00 82 1012.3
20260510040053 20 0 0.0 0.0 0.00 0.00 0.00 82 1012.2
20260510035555 20 0 0.0 0.0 0.00 0.00 0.00 82 1012.3
20260510035055 20 0 0.0 0.0 0.00 0.00 0.00 82 1012.2
20260510034602 20 0 0.0 0.0 0.00 0.00 0.00 82 1012.2
20260510034052 20 0 0.0 0.0 0.00 0.00 0.00 82 1012.2
20260510033555 20 0 0.0 0.0 0.00 0.00 0.00 82 1012.3
20260510033100 20 0 0.0 0.0 0.00 0.00 0.00 81 1012.3
20260510032555 20 0 0.0 0.0 0.00 0.00 0.00 81 1012.2
20260510032056 21 0 0.0 0.0 0.00 0.00 0.00 80 1012.3
20260510031559 21 0 0.0 0.0 0.00 0.00 0.00 80 1012.4
20260510031058 21 0 0.0 0.0 0.00 0.00 0.00 79 1012.3
20260510030555 21 0 0.0 0.0 0.00 0.00 0.00 79 1012.2
20260510030058 21 0 0.0 11.3 0.00 0.00 0.00 79 1012.2
20260510025555 21 0 1.6 11.3 0.00 0.00 0.00 78 1012.2
20260510025052 21 211 1.6 11.3 0.00 0.00 0.00 78 1012.0
20260510024556 21 0 1.6 9.7 0.00 0.00 0.00 77 1012.1
20260510024052 21 0 3.2 9.7 0.00 0.00 0.00 77 1012.1
20260510023552 21 0 0.0 0.0 0.00 0.00 0.00 76 1011.9
20260510023054 22 0 0.0 0.0 0.00 0.00 0.00 75 1012.0
20260510022556 22 0 0.0 0.0 0.00 0.00 0.00 75 1011.9
20260510022056 22 0 0.0 0.0 0.00 0.00 0.00 75 1011.9
20260510021557 22 0 0.0 0.0 0.00 0.00 0.00 74 1011.8
20260510021051 22 0 0.0 0.0 0.00 0.00 0.00 74 1011.7
20260510020551 22 0 0.0 0.0 0.00 0.00 0.00 74 1011.7
20260510020054 22 0 0.0 0.0 0.00 0.00 0.00 73 1011.5
20260510015551 22 0 0.0 0.0 0.00 0.00 0.00 72 1011.6
20260510015055 22 0 0.0 0.0 0.00 0.00 0.00 72 1011.4
20260510014556 22 0 0.0 0.0 0.00 0.00 0.00 71 1011.4
20260510014055 22 0 0.0 0.0 0.00 0.00 0.00 71 1011.4
20260510013552 22 0 0.0 0.0 0.00 0.00 0.00 70 1011.3
20260510013053 22 0 0.0 0.0 0.00 0.00 0.00 70 1011.2
20260510012552 22 0 0.0 0.0 0.00 0.00 0.00 69 1011.1
20260510012052 23 0 0.0 0.0 0.00 0.00 0.00 68 1011.1
20260510011558 23 0 0.0 0.0 0.00 0.00 0.00 68 1011.1
20260510011054 23 0 0.0 0.0 0.00 0.00 0.00 68 1010.7
20260510010551 23 0 0.0 0.0 0.00 0.00 0.00 68 1010.7
20260510010126 23 0 0.0 0.0 0.00 0.00 0.00 68 1010.7
20260510005552 23 0 0.0 8.0 0.00 0.00 0.00 68 1010.6
20260510005055 23 0 0.0 8.0 0.00 0.00 0.00 67 1010.3
20260510004554 24 167 0.0 12.9 0.00 0.00 0.00 67 1010.3
20260510004055 24 0 0.0 12.9 0.00 0.00 0.00 67 1010.1
20260510003552 24 0 1.6 12.9 0.00 0.00 0.00 67 1010.2
20260510003054 25 194 0.0 0.0 0.00 0.00 0.00 66 1010.1
20260510002551 25 0 0.0 0.0 0.00 0.00 0.00 65 1009.9
20260510002051 25 0 0.0 8.0 0.00 0.00 0.00 65 1009.9
20260510001604 25 0 0.0 8.0 0.00 0.00 0.00 63 1009.9
20260510001052 25 0 0.0 14.5 0.00 0.00 0.00 64 1009.7
20260510000551 25 0 0.0 14.5 0.00 0.00 0.00 64 1009.7
20260510000054 26 0 0.0 14.5 0.00 0.00 0.00 62 1009.7
20260509235551 26 0 1.6 14.5 0.00 0.00 0.00 63 1009.5
20260509235051 26 0 1.6 14.5 0.00 0.00 0.00 61 1009.5
20260509234632 26 0 0.0 14.5 0.00 0.00 0.00 63 1009.4
20260509234051 26 0 1.6 14.5 0.00 0.00 0.00 62 1009.5
20260509233552 26 0 0.0 11.3 0.00 0.00 0.00 61 1009.4
20260509233057 26 0 0.0 22.5 0.00 0.00 0.00 61 1009.4
20260509232556 26 0 3.2 22.5 0.00 0.00 0.00 62 1009.4
20260509232055 26 0 12.9 22.5 0.00 0.00 0.00 62 1009.5
20260509231555 26 0 0.0 14.5 0.00 0.00 0.00 61 1009.6
20260509231055 26 0 4.8 16.1 0.00 0.00 0.00 62 1009.4
20260509230551 26 0 0.0 17.7 0.00 0.00 0.00 62 1009.5
20260509230058 25 0 4.8 17.7 0.00 0.00 0.00 62 1009.5
20260509225553 26 0 3.2 17.7 0.00 0.00 0.00 61 1009.4
20260509225051 26 189 3.2 14.5 0.00 0.00 0.00 61 1009.5
20260509224553 26 0 3.2 16.1 0.00 0.00 0.00 62 1009.4
20260509224054 26 163 4.8 16.1 0.00 0.00 0.00 62 1009.5
20260509223552 26 129 3.2 16.1 0.00 0.00 0.00 62 1009.5
20260509223055 25 161 3.2 19.3 0.00 0.00 0.00 64 1009.5
20260509222554 25 180 11.3 24.1 0.00 0.00 0.00 64 1009.5
20260509222051 25 166 6.4 24.1 0.00 0.00 0.00 65 1009.5
20260509221554 25 217 11.3 25.7 0.00 0.00 0.00 64 1009.6
20260509221054 25 165 12.9 25.7 0.00 0.00 0.00 64 1009.4
20260509220551 25 137 17.7 24.1 0.00 0.00 0.00 63 1009.4
20260509215551 26 186 11.3 20.9 0.00 0.00 0.00 62 1009.5
20260509215052 26 174 12.9 20.9 0.00 0.00 0.00 61 1009.4
20260509214554 27 195 12.9 20.9 0.00 0.00 0.00 59 1009.2
20260509214051 27 159 8.0 20.9 0.00 0.00 0.00 59 1009.2
20260509213555 26 168 8.0 20.9 0.00 0.00 0.00 60 1009.4
20260509213057 27 189 14.5 19.3 0.00 0.00 0.00 59 1009.3
20260509212551 27 205 4.8 19.3 0.00 0.00 0.00 59 1009.2
20260509212054 27 219 12.9 19.3 0.00 0.00 0.00 58 1009.3
20260509211556 27 0 0.0 14.5 0.00 0.00 0.00 58 1009.4
20260509211057 27 262 8.0 14.5 0.00 0.00 0.00 57 1009.4
20260509210552 28 0 4.8 14.5 0.00 0.00 0.00 54 1009.4
20260509210052 28 0 0.0 12.9 0.00 0.00 0.00 55 1009.5
20260509205551 27 0 0.0 12.9 0.00 0.00 0.00 57 1009.6
20260509205054 27 213 1.6 11.3 0.00 0.00 0.00 59 1009.6
20260509204553 27 0 0.0 11.3 0.00 0.00 0.00 57 1009.5
20260509204052 27 0 3.2 11.3 0.00 0.00 0.00 56 1009.6
20260509203552 27 0 0.0 11.3 0.00 0.00 0.00 57 1009.6
20260509203119 27 0 0.0 11.3 0.00 0.00 0.00 54 1009.6
20260509202551 27 0 1.6 11.3 0.00 0.00 0.00 54 1009.7
20260509202055 27 0 0.0 0.0 0.00 0.00 0.00 55 1009.8
20260509201604 27 0 0.0 0.0 0.00 0.00 0.00 57 1009.9